Vertical_Velocity
-1 -0 -0 1 1 1 2 2 2 -2 -6 -3 1 -1 -3 -2 -2 -2 -0 -1 -3 -1 -1 2 1 -5 -5 1 -1 -6 2 -4 -0 5 -1 1 -3 -5
-1 -2 -0 -1 -0 0 0 1 3 2 -2 3 -1 -2 1 -2 -2 -2 1 -0 2 -3 -3 -0 3 4 4 -2 -3 2 2 2 -6 -0 -3 0 -2 -3
1 -0 -1 1 0 1 1 1 1 6 -2 -6 -1 5 -1 -0 -0 -1 -3 -2 -0 -1 -0 -1 -4 -2 -2 1 1 -4 -5 -3 0 -2 -1 -1 -2 -1
2 2 -0 4 -0 2 2 0 -1 4 3 -7 1 -2 -4 2 1 -4 1 1 -4 -1 1 -0 0 -1 -1 -1 -1 -1 -1 -1 0 -0 -0 -2 -1 -1
0 1 -1 3 -2 2 1 -2 2 2 3 3 -13 1 -1 -1 -3 0 1 -3 -0 0 -2 0 4 2 1 -3 -1 -1 -1 -1 -2 -5 -0 1 3 3
1 1 1 1 2 2 3 2 -0 2 3 2 0 -6 7 1 -3 -5 -7 6 -3 -1 -2 -1 -4 -1 2 4 3 -1 -1 -2 -0 2 2 -1 -4 -3
-0 -1 -0 1 1 1 1 -0 5 3 4 1 0 -0 -6 -0 0 3 -4 0 -2 1 -2 -4 -0 -3 -4 -2 1 2 2 1 2 3 2 2 2 2
-2 -2 -0 -2 -4 -4 -4 1 -3 -4 -1 5 -0 -1 -5 0 2 1 -1 -3 -5 0 1 -2 -1 -1 -1 -3 -4 -2 -1 0 0 -2 -1 1 2 1
-0 1 -1 -0 0 2 2 -0 7 5 4 1 -5 -5 2 -1 5 2 -0 -3 -4 2 -1 -4 3 -4 3 -2 2 -1 -3 -1 1 2 -0 -1 -0 2
-1 -2 -4 -5 -1 -3 -0 -0 -3 1 4 11 8 -3 -2 6 6 8 2 -2 1 -1 0 -8 6 -2 2 1 -0 -1 -0 0 -0 -2 -0 1 -1 -3
1 2 1 -2 0 2 -4 -3 -1 -3 1 -1 2 4 4 -1 -0 1 -2 4 -4 -6 2 2 -1 2 -1 1 4 -1 0 0 1 0 2 2 -0 -1
-2 -5 -0 1 -0 -1 1 1 0 -3 2 -4 -5 -5 4 6 6 5 10 1 10 2 1 0 1 6 0 -2 2 0 2 1 1 0 1 1 0 0
-4 -3 -2 2 -0 3 11 5 -3 -0 -8 -5 -3 1 -3 -2 -2 2 -1 11 11 -2 3 5 1 3 4 1 2 3 3 1 2 1 -1 -2 0 -1
-3 -3 -2 3 1 -1 2 -1 1 5 5 1 -1 -7 -4 -3 5 5 -2 -1 1 -11 8 -2 3 1 3 3 3 -1 2 6 4 2 1 2 -1 -0
3 -1 -1 0 2 1 0 -2 2 0 2 2 0 -5 -0 4 1 13 9 -1 7 1 13 3 1 5 -0 -6 -3 2 1 -5 2 1 4 1 0 2
-3 -6 -3 1 3 2 -2 -2 0 2 6 1 -1 0 7 1 1 -1 18 6 -1 -1 3 1 6 5 -1 -2 1 -2 -2 -4 -2 -0 -3 -1 2 -1
4 1 -3 -3 -4 -1 -3 -1 2 -0 -0 2 3 1 -7 3 3 7 -10 27 -1 -3 -3 1 2 2 2 4 -6 1 1 -5 -1 -3 1 -3 3 -1
2 0 -2 -1 -2 -2 -1 -2 0 0 1 2 1 3 3 -1 -2 -4 -2 1 -2 -8 -4 -2 1 -2 -0 -5 -1 -7 -2 -3 0 -6 -0 -1 -4 0
1 -1 -2 0 -1 1 3 2 -2 -1 0 -1 -0 -1 0 -3 15 -1 -1 6 4 -1 1 7 -6 -1 5 -7 -2 4 -2 0 1 -3 0 -3 -6 -1
1 0 -0 3 2 0 -1 1 -0 -0 0 1 -1 1 3 -0 4 -3 -1 -1 -0 -1 1 3 -1 -3 -4 -6 2 2 -2 -2 -0 0 -1 4 -3 -5
-1 -2 -1 -2 -2 -0 -2 -0 1 -0 -1 -2 -2 0 1 1 -1 -1 -3 2 2 1 2 -5 -7 4 3 6 2 -3 -3 3 -0 -1 -0 -2 -2 -4
-1 6 4 3 5 1 -2 -1 -1 -1 -1 1 -0 0 -0 5 -0 8 3 -3 13 16 11 4 -1 -1 2 2 -5 -1 1 2 -0 -2 -1 4 2 -11
-0 2 1 -1 -1 1 2 -2 -1 -2 -0 2 1 -1 -1 -1 1 1 1 12 -1 1 1 0 -0 1 -2 2 5 1 2 -2 -0 -1 -3 1 -1 -7
Height
1505 1504 1503 1502 1501 1500 1499 1498 1497 1494 1491 1491 1490 1488 1487 1485 1484 1483 1482 1479 1479 1478 1477 1475 1474 1474 1473 1472 1472 1471 1471 1470 1470 1471 1471 1472 1474 1476
1502 1501 1500 1499 1498 1497 1496 1495 1494 1493 1491 1487 1487 1486 1484 1482 1482 1480 1479 1477 1475 1474 1473 1473 1471 1470 1469 1468 1467 1467 1466 1465 1468 1469 1470 1471 1472 1475
1499 1498 1496 1495 1494 1493 1492 1491 1489 1489 1486 1482 1482 1482 1480 1478 1477 1475 1474 1473 1472 1471 1470 1469 1469 1468 1467 1466 1466 1465 1464 1465 1466 1467 1466 1468 1469 1471
1495 1493 1492 1490 1489 1488 1487 1486 1484 1483 1482 1478 1476 1476 1476 1475 1472 1470 1470 1469 1468 1467 1466 1465 1465 1465 1464 1464 1463 1463 1464 1465 1464 1464 1465 1466 1467 1469
1489 1487 1486 1485 1483 1483 1481 1480 1479 1478 1476 1472 1470 1470 1469 1469 1468 1466 1464 1464 1463 1462 1462 1462 1461 1460 1460 1460 1461 1461 1462 1461 1463 1464 1465 1465 1466 1467
1482 1481 1480 1478 1477 1476 1475 1474 1472 1471 1470 1468 1465 1464 1462 1463 1461 1460 1459 1459 1457 1457 1456 1456 1456 1456 1456 1456 1457 1457 1458 1459 1460 1460 1461 1461 1462 1462
1475 1474 1473 1472 1470 1469 1467 1466 1466 1464 1463 1460 1458 1457 1456 1455 1454 1455 1453 1453 1452 1452 1451 1451 1451 1452 1451 1452 1452 1452 1454 1455 1456 1457 1457 1458 1459 1459
1468 1466 1465 1464 1462 1460 1460 1458 1458 1456 1454 1454 1452 1449 1449 1449 1449 1448 1447 1447 1445 1447 1446 1446 1445 1445 1447 1448 1449 1450 1450 1450 1451 1452 1454 1454 1455 1456
1461 1458 1456 1455 1453 1452 1449 1448 1448 1446 1444 1443 1441 1442 1442 1443 1442 1440 1440 1440 1440 1440 1440 1439 1440 1440 1442 1443 1444 1445 1446 1447 1448 1448 1449 1450 1451 1452
1454 1452 1450 1448 1447 1444 1441 1438 1437 1437 1438 1437 1434 1431 1432 1433 1434 1433 1432 1432 1432 1433 1434 1433 1434 1435 1436 1437 1438 1439 1440 1442 1443 1444 1445 1446 1446 1448
1448 1446 1444 1442 1440 1438 1434 1432 1430 1429 1428 1427 1426 1424 1423 1423 1424 1425 1424 1425 1422 1424 1425 1426 1427 1429 1430 1431 1432 1433 1434 1435 1437 1438 1439 1441 1442 1443
1440 1438 1437 1435 1434 1432 1430 1428 1424 1422 1420 1418 1416 1415 1415 1413 1413 1415 1414 1413 1413 1415 1417 1420 1420 1422 1423 1422 1425 1426 1428 1430 1431 1433 1434 1436 1436 1437
1433 1430 1429 1428 1427 1426 1424 1421 1418 1417 1414 1413 1410 1408 1406 1406 1405 1404 1404 1404 1404 1405 1411 1412 1413 1414 1415 1417 1418 1420 1422 1424 1426 1427 1429 1430 1431 1431
1428 1425 1422 1421 1419 1417 1416 1414 1412 1410 1408 1406 1403 1402 1400 1398 1396 1397 1395 1396 1397 1398 1403 1405 1406 1407 1409 1411 1412 1414 1417 1419 1419 1419 1420 1422 1423 1425
1423 1420 1417 1415 1412 1410 1408 1406 1404 1402 1400 1398 1395 1394 1393 1392 1389 1389 1388 1389 1390 1392 1395 1397 1399 1400 1401 1403 1405 1406 1408 1410 1411 1412 1414 1414 1415 1416
1415 1412 1410 1407 1405 1403 1400 1398 1396 1394 1392 1389 1387 1386 1386 1385 1383 1381 1378 1379 1383 1386 1389 1391 1393 1393 1395 1397 1398 1398 1400 1401 1402 1405 1406 1407 1408 1409
1408 1404 1401 1399 1396 1393 1391 1390 1389 1387 1385 1383 1381 1379 1378 1379 1377 1375 1376 1374 1377 1379 1381 1384 1386 1387 1389 1391 1391 1391 1391 1392 1394 1396 1399 1398 1399 1400
1400 1396 1393 1392 1389 1387 1385 1383 1381 1380 1378 1376 1374 1373 1372 1371 1371 1370 1370 1369 1370 1371 1373 1376 1377 1379 1380 1381 1382 1382 1384 1384 1386 1388 1390 1389 1388 1391
1392 1389 1387 1385 1383 1381 1379 1377 1375 1374 1372 1370 1368 1367 1366 1365 1363 1364 1364 1364 1364 1365 1367 1369 1371 1373 1374 1373 1375 1376 1377 1379 1380 1380 1382 1381 1380 1383
1386 1383 1381 1379 1377 1375 1373 1371 1369 1367 1366 1364 1362 1361 1360 1359 1359 1358 1358 1357 1357 1358 1360 1363 1365 1366 1367 1367 1368 1370 1371 1373 1375 1375 1376 1376 1376 1378
1380 1378 1376 1374 1372 1370 1367 1365 1363 1361 1359 1358 1356 1355 1355 1354 1352 1351 1351 1349 1350 1352 1354 1356 1359 1361 1362 1363 1363 1362 1365 1368 1368 1369 1370 1370 1370 1370
1374 1372 1370 1368 1366 1364 1362 1360 1357 1355 1354 1352 1351 1349 1349 1348 1346 1344 1345 1345 1345 1346 1349 1352 1354 1355 1356 1356 1356 1356 1358 1361 1362 1362 1363 1363 1364 1360
1369 1367 1364 1362 1360 1358 1355 1353 1351 1349 1347 1346 1345 1344 1343 1341 1341 1341 1341 1341 1342 1344 1345 1346 1348 1349 1349 1350 1351 1350 1351 1353 1354 1353 1353 1355 1355 1353